Location: Cussy
(47.0410°N, 4.6412°E)
Time: 18:34:42
(UTC+00:00)

Cosmos 158 Rocket - Visible Passes

Search period start: 18 April 2021 00:00
Search period end: 28 April 2021 00:00
Orbit: 699 x 793 km, 74.0° (Epoch: 18 April)

Date Brightness Start Highest point End Pass type
(mag) Time Alt. Az. Time Alt. Az. Time Alt. Az.
18 Apr 4.1 01:36:34 10° NNW 01:41:30 65° ENE 01:42:28 52° ESE visible
18 Apr 5.4 03:19:28 10° WNW 03:22:12 16° W 03:22:12 16° W visible
19 Apr 5.2 00:53:06 10° N 00:57:39 35° ENE 00:58:51 31° E visible
19 Apr 4.7 02:34:50 10° NW 02:38:36 30° W 02:38:36 30° W visible
20 Apr 6.0 00:09:55 10° N 00:13:37 21° NE 00:15:22 17° E visible
20 Apr 4.0 01:50:47 10° NNW 01:55:07 57° WNW 01:55:07 57° WNW visible
20 Apr 6.5 23:27:19 10° NNE 23:29:25 12° NE 23:31:29 10° ENE visible
21 Apr 4.0 01:07:03 10° NNW 01:11:43 69° NE 01:11:43 69° NE visible
21 Apr 5.8 02:50:10 10° WNW 02:51:29 13° WNW 02:51:29 13° WNW visible
22 Apr 4.9 00:23:33 10° N 00:28:10 38° ENE 00:28:23 38° ENE visible
22 Apr 5.2 02:05:24 10° NW 02:08:09 25° WNW 02:08:09 25° WNW visible
22 Apr 5.8 23:40:18 10° N 23:44:09 22° NE 23:45:07 21° ENE visible
23 Apr 4.5 01:21:18 10° NNW 01:24:53 43° WNW 01:24:53 43° WNW visible
23 Apr 6.3 22:57:35 10° NNE 22:59:58 13° NE 23:01:53 11° ENE visible
24 Apr 4.2 00:37:31 10° NNW 00:41:40 61° N 00:41:40 61° N visible
24 Apr 6.0 02:20:56 10° WNW 02:21:26 11° WNW 02:21:26 11° WNW visible
24 Apr 4.8 23:53:59 10° N 23:58:28 41° NE 23:58:28 41° NE visible
25 Apr 5.5 01:35:58 10° NW 01:38:15 21° WNW 01:38:15 21° WNW visible
25 Apr 5.6 23:10:43 10° N 23:14:40 24° NE 23:15:20 23° ENE visible
26 Apr 4.8 00:51:48 10° NNW 00:55:06 38° WNW 00:55:06 38° WNW visible
26 Apr 6.2 22:27:53 10° NNE 22:30:31 14° NE 22:32:12 12° ENE visible
27 Apr 4.3 00:08:00 10° NNW 00:11:59 59° NNW 00:11:59 59° NNW visible
27 Apr 4.7 23:24:25 10° NNW 23:28:53 44° NE 23:28:53 44° NE visible
